| time (UTC) | temp F | wind direction | speed MPH | gust MPH | rain 1hr in | rain 24hr in | rain mn in | humidity % | barometer mb |
| 20260508141554 | 44 | 234 | 0.0 | 0.0 | 0.00 | 0.00 | 0.00 | 58 | 1010.5 |
| 20260508140019 | 43 | 274 | 0.0 | 0.0 | 0.00 | 0.00 | 0.00 | 63 | 1010.5 |
| 20260508134503 | 42 | 341 | 0.0 | 0.0 | 0.00 | 0.00 | 0.00 | 66 | 1010.8 |
| 20260508133056 | 41 | 269 | 0.0 | 0.0 | 0.00 | 0.00 | 0.00 | 68 | 1010.9 |
| 20260508131601 | 41 | 329 | 0.0 | 0.0 | 0.00 | 0.00 | 0.00 | 73 | 1011.0 |
| 20260508124559 | 38 | 229 | 0.0 | 0.0 | 0.00 | 0.00 | 0.00 | 81 | 1011.1 |
| 20260508123048 | 37 | 225 | 0.0 | 0.0 | 0.00 | 0.00 | 0.00 | 83 | 1011.2 |
| 20260508121541 | 36 | 246 | 0.0 | 0.0 | 0.00 | 0.00 | 0.00 | 85 | 1011.2 |
| 20260508120108 | 35 | 253 | 0.0 | 0.0 | 0.00 | 0.00 | 0.00 | 88 | 1011.3 |
| 20260508114601 | 33 | 188 | 0.0 | 0.0 | 0.00 | 0.00 | 0.00 | 89 | 1011.3 |
| 20260508113044 | 33 | 190 | 0.0 | 0.0 | 0.00 | 0.00 | 0.00 | 90 | 1011.2 |
| 20260508111528 | 32 | 190 | 0.0 | 0.0 | 0.00 | 0.00 | 0.00 | 90 | 1011.1 |
| 20260508110053 | 31 | 190 | 0.0 | 0.0 | 0.00 | 0.00 | 0.00 | 91 | 1011.0 |
| 20260508104554 | 31 | 190 | 0.0 | 0.0 | 0.00 | 0.00 | 0.00 | 91 | 1010.7 |
| 20260508103034 | 30 | 190 | 0.0 | 0.0 | 0.00 | 0.00 | 0.00 | 92 | 1010.7 |
| 20260508101605 | 30 | 190 | 0.0 | 0.0 | 0.00 | 0.00 | 0.00 | 92 | 1010.6 |
| 20260508100052 | 30 | 190 | 0.0 | 0.0 | 0.00 | 0.00 | 0.00 | 93 | 1010.3 |
| 20260508094549 | 29 | 190 | 0.0 | 0.0 | 0.00 | 0.00 | 0.00 | 92 | 1010.1 |
| 20260508093050 | 29 | 190 | 0.0 | 0.0 | 0.00 | 0.00 | 0.00 | 91 | 1010.1 |
| 20260508091537 | 30 | 190 | 0.0 | 0.0 | 0.00 | 0.00 | 0.00 | 91 | 1009.8 |
| 20260508090041 | 30 | 190 | 0.0 | 0.0 | 0.00 | 0.00 | 0.00 | 91 | 1009.7 |
| 20260508084539 | 30 | 190 | 0.0 | 0.0 | 0.00 | 0.00 | 0.00 | 92 | 1009.7 |
| 20260508083051 | 30 | 190 | 0.0 | 0.0 | 0.00 | 0.00 | 0.00 | 91 | 1009.6 |
| 20260508081544 | 30 | 190 | 0.0 | 0.0 | 0.00 | 0.00 | 0.00 | 91 | 1009.3 |
| 20260508080009 | 30 | 190 | 0.0 | 0.0 | 0.00 | 0.00 | 0.00 | 91 | 1009.4 |
| 20260508074553 | 30 | 190 | 0.0 | 0.0 | 0.00 | 0.00 | 0.00 | 91 | 1009.3 |
| 20260508073010 | 30 | 190 | 0.0 | 0.0 | 0.00 | 0.00 | 0.00 | 91 | 1009.2 |
| 20260508071613 | 30 | 190 | 0.0 | 0.0 | 0.00 | 0.00 | 0.00 | 91 | 1009.1 |
| 20260508070028 | 30 | 190 | 0.0 | 0.0 | 0.00 | 0.00 | 0.00 | 90 | 1008.9 |
| 20260508064542 | 30 | 190 | 0.0 | 0.0 | 0.00 | 0.00 | 0.00 | 90 | 1008.9 |
| 20260508063002 | 31 | 190 | 0.0 | 0.0 | 0.00 | 0.00 | 0.00 | 90 | 1009.0 |
| 20260508061557 | 31 | 190 | 0.0 | 0.0 | 0.00 | 0.00 | 0.00 | 90 | 1009.0 |
| 20260508060113 | 31 | 190 | 0.0 | 0.0 | 0.00 | 0.00 | 0.00 | 89 | 1009.0 |
| 20260508054605 | 31 | 190 | 0.0 | 0.0 | 0.00 | 0.00 | 0.00 | 89 | 1009.1 |
| 20260508053014 | 32 | 190 | 0.0 | 0.0 | 0.00 | 0.00 | 0.00 | 89 | 1009.2 |
| 20260508051606 | 32 | 190 | 0.0 | 0.0 | 0.00 | 0.00 | 0.00 | 88 | 1009.2 |
| 20260508050104 | 32 | 190 | 0.0 | 0.0 | 0.00 | 0.00 | 0.00 | 88 | 1009.2 |
| 20260508044542 | 32 | 190 | 0.0 | 0.0 | 0.00 | 0.00 | 0.00 | 88 | 1009.3 |
| 20260508043106 | 33 | 190 | 0.0 | 0.0 | 0.00 | 0.00 | 0.00 | 88 | 1009.3 |
| 20260508041557 | 33 | 190 | 0.0 | 0.0 | 0.00 | 0.00 | 0.00 | 88 | 1009.4 |
| 20260508040020 | 33 | 190 | 0.0 | 0.0 | 0.00 | 0.00 | 0.00 | 87 | 1009.4 |
| 20260508034555 | 33 | 190 | 0.0 | 0.0 | 0.00 | 0.00 | 0.00 | 87 | 1009.4 |
| 20260508033036 | 34 | 190 | 0.0 | 0.0 | 0.00 | 0.00 | 0.00 | 86 | 1009.3 |
| 20260508031549 | 34 | 190 | 0.0 | 0.0 | 0.00 | 0.00 | 0.00 | 86 | 1009.4 |
| 20260508030004 | 35 | 190 | 0.0 | 0.0 | 0.00 | 0.00 | 0.00 | 85 | 1009.2 |
| 20260508024603 | 35 | 190 | 0.0 | 0.0 | 0.00 | 0.00 | 0.00 | 83 | 1009.2 |
| 20260508023042 | 36 | 190 | 0.0 | 0.0 | 0.00 | 0.00 | 0.00 | 82 | 1009.2 |
| 20260508021528 | 37 | 190 | 0.0 | 0.0 | 0.00 | 0.00 | 0.00 | 80 | 1009.1 |
| 20260508020104 | 38 | 190 | 0.0 | 0.0 | 0.00 | 0.00 | 0.00 | 77 | 1009.1 |
| 20260508014551 | 39 | 192 | 0.0 | 0.0 | 0.00 | 0.00 | 0.00 | 75 | 1008.9 |
| 20260508013053 | 40 | 192 | 0.0 | 0.0 | 0.00 | 0.00 | 0.00 | 72 | 1008.6 |
| 20260508011501 | 41 | 192 | 0.0 | 0.0 | 0.00 | 0.00 | 0.00 | 72 | 1008.3 |
| 20260508004550 | 43 | 192 | 0.0 | 0.0 | 0.00 | 0.00 | 0.00 | 65 | 1007.9 |
| 20260508003032 | 44 | 194 | 0.0 | 0.0 | 0.00 | 0.00 | 0.00 | 63 | 1007.7 |
| 20260508001553 | 45 | 194 | 0.0 | 0.0 | 0.00 | 0.00 | 0.00 | 58 | 1007.6 |
| 20260508000106 | 46 | 224 | 0.0 | 0.0 | 0.00 | 0.01 | 0.00 | 57 | 1007.5 |
| 20260507234556 | 46 | 277 | 0.0 | 0.0 | 0.00 | 0.01 | 0.00 | 55 | 1007.3 |
| 20260507233100 | 47 | 229 | 0.0 | 0.0 | 0.00 | 0.01 | 0.00 | 54 | 1007.1 |
| 20260507231555 | 47 | 246 | 0.0 | 0.0 | 0.00 | 0.01 | 0.00 | 52 | 1007.0 |
| 20260507230050 | 48 | 296 | 0.0 | 0.0 | 0.00 | 0.01 | 0.00 | 51 | 1006.8 |
| 20260507224553 | 48 | 279 | 0.0 | 0.0 | 0.00 | 0.06 | 0.00 | 52 | 1006.8 |
| 20260507223048 | 48 | 264 | 0.0 | 0.0 | 0.00 | 0.06 | 0.00 | 51 | 1006.8 |
| 20260507221546 | 49 | 198 | 0.0 | 0.0 | 0.00 | 0.06 | 0.00 | 51 | 1006.7 |
| 20260507220039 | 50 | 292 | 0.0 | 0.0 | 0.00 | 0.06 | 0.00 | 50 | 1006.7 |
| 20260507214527 | 50 | 249 | 0.0 | 0.0 | 0.00 | 0.06 | 0.00 | 52 | 1006.7 |
| 20260507213036 | 49 | 221 | 0.0 | 0.0 | 0.00 | 0.06 | 0.00 | 53 | 1006.7 |
| 20260507211542 | 50 | 118 | 0.0 | 0.0 | 0.00 | 0.06 | 0.00 | 52 | 1006.8 |
| 20260507210012 | 49 | 165 | 0.0 | 0.0 | 0.00 | 0.12 | 0.00 | 53 | 1006.5 |
| 20260507204502 | 49 | 281 | 0.0 | 0.0 | 0.00 | 0.12 | 0.00 | 53 | 1006.7 |
| 20260507203108 | 49 | 222 | 0.0 | 0.0 | 0.00 | 0.12 | 0.00 | 54 | 1006.5 |
| 20260507201557 | 48 | 5 | 0.0 | 0.0 | 0.00 | 0.12 | 0.00 | 57 | 1006.6 |
| 20260507200051 | 48 | 244 | 0.0 | 0.0 | 0.00 | 0.22 | 0.00 | 56 | 1006.7 |
| 20260507194531 | 49 | 260 | 0.0 | 0.0 | 0.00 | 0.22 | 0.00 | 56 | 1006.8 |
| 20260507193014 | 49 | 259 | 0.0 | 0.0 | 0.00 | 0.22 | 0.00 | 55 | 1007.0 |
| 20260507191530 | 49 | 312 | 0.0 | 0.0 | 0.00 | 0.22 | 0.00 | 53 | 1007.0 |
| 20260507190015 | 50 | 200 | 0.0 | 0.0 | 0.00 | 0.38 | 0.00 | 53 | 1007.0 |
| 20260507184556 | 51 | 254 | 0.0 | 0.0 | 0.00 | 0.38 | 0.00 | 51 | 1007.3 |
| 20260507183035 | 50 | 234 | 0.0 | 0.0 | 0.00 | 0.38 | 0.00 | 52 | 1007.3 |
| 20260507181515 | 50 | 277 | 0.0 | 0.0 | 0.00 | 0.38 | 0.00 | 54 | 1007.7 |
| 20260507180110 | 49 | 232 | 0.0 | 0.0 | 0.00 | 0.61 | 0.00 | 55 | 1007.6 |
| 20260507174639 | 49 | 308 | 0.0 | 0.0 | 0.00 | 0.61 | 0.00 | 54 | 1007.7 |
| 20260507173101 | 48 | 246 | 0.0 | 0.0 | 0.00 | 0.61 | 0.00 | 54 | 1007.9 |
| 20260507171627 | 49 | 242 | 0.0 | 0.0 | 0.00 | 0.61 | 0.00 | 55 | 1007.8 |
| 20260507170054 | 48 | 208 | 0.0 | 0.0 | 0.00 | 0.71 | 0.00 | 53 | 1007.9 |
| 20260507164508 | 48 | 225 | 0.0 | 0.0 | 0.00 | 0.71 | 0.00 | 56 | 1008.0 |
| 20260507163032 | 47 | 324 | 0.0 | 0.0 | 0.00 | 0.71 | 0.00 | 57 | 1008.4 |
| 20260507161526 | 47 | 244 | 0.0 | 0.0 | 0.00 | 0.71 | 0.00 | 58 | 1008.6 |
| 20260507160120 | 47 | 230 | 0.0 | 0.0 | 0.00 | 0.73 | 0.00 | 61 | 1008.6 |
| 20260507154558 | 47 | 188 | 0.0 | 0.0 | 0.00 | 0.73 | 0.00 | 59 | 1008.7 |
| 20260507153049 | 46 | 239 | 0.0 | 0.0 | 0.00 | 0.73 | 0.00 | 59 | 1009.0 |
| 20260507151559 | 45 | 309 | 0.0 | 0.0 | 0.00 | 0.73 | 0.00 | 59 | 1008.9 |
| 20260507150054 | 45 | 315 | 0.0 | 0.0 | 0.00 | 0.73 | 0.00 | 62 | 1008.7 |
| 20260507144530 | 46 | 319 | 0.0 | 0.0 | 0.00 | 0.73 | 0.00 | 66 | 1008.8 |
| 20260507143008 | 45 | 293 | 0.0 | 0.0 | 0.00 | 0.73 | 0.00 | 67 | 1008.8 |